Flag for Macedonia, Republic of Weather past 2 weeks in Kumanovo, Macedonia, Republic of

Now
32 °F

Light snow. Overcast.


Feels Like: 27 °F
Forecast: 34 / 40 °F
Wind: 5 mph from West

Location: Skopje-Petrovec

Current Time: Mar 6, 2015 at 11:16:24 PM

Latest Report: Mar 6, 2015 at 10:30 PM


Visibility: 2 mi

Pressure: 30.18 "Hg

Humidity: 100%

Dew point: 32 °F

Location of KumanovoLocation

Historic Weather in Kumanovo — Graph

°F

Kumanovo temperature yesterday

Maximum temperature yesterday: 45 °F (at 12:00 AM)
Minimum temperature yesterday: 37 °F (at 11:30 PM)
Average temperature yesterday: 42 °F

Past Weeks' High & Low Weather Summary

 TemperatureHumidityPressure
High63 °F (Mar 2, 3:30 PM)100% (Feb 23, 7:30 AM)30.39 "Hg (Feb 23, 7:30 AM)
Low23 °F (Feb 21, 4:00 AM)15% (Feb 20, 12:30 PM)29.59 "Hg (Feb 24, 4:00 PM)
Average45 °F74%29.98 "Hg
* Reported Feb 19 10:00 PM — Mar 6 9:30 PM, Kumanovo, Weather by CustomWeather, © 2015

Note: Actual official high and low records may vary slightly from our data, if they occured in-between our weather recording intervals... More about our weather records

Advertising

Kumanovo weather history for previous 24 hours

 ConditionsComfort  
Time TempWeatherWind HumidityBarometerVisibility
9:30 PM
Fri, Mar 6
32 °FLight snow. Overcast.2 mph93%30.18 "Hg1 mi
9:00 PM34 °FLight snow. Overcast.2 mph93%30.18 "Hg2 mi
8:30 PM36 °FLight rain. Overcast.3 mph87%30.18 "HgN/A
8:00 PM37 °FLight rain. Mostly cloudy.9 mph81%30.18 "HgN/A
7:30 PM39 °FLight rain. Mostly cloudy.10 mph70%30.18 "HgN/A
7:00 PM39 °FDrizzle. Mostly cloudy.14 mph70%30.18 "HgN/A
6:30 PM39 °FLight rain. Mostly cloudy.20 mph70%30.15 "HgN/A
6:00 PM39 °FMostly cloudy.15 mph70%30.15 "HgN/A
5:30 PM39 °FMostly cloudy.21 mph70%30.18 "HgN/A
5:00 PM39 °FMostly cloudy.13 mph70%30.18 "HgN/A
4:30 PM39 °FMostly cloudy.18 mph70%30.18 "HgN/A
4:00 PM39 °FPartly sunny.16 mph70%30.18 "HgN/A
3:30 PM39 °FPartly sunny.20 mph70%30.15 "HgN/A
3:00 PM41 °FPartly sunny.24 mph66%30.18 "HgN/A
2:30 PM41 °FPartly sunny.22 mph66%30.15 "HgN/A
2:00 PM41 °FPartly sunny.18 mph66%30.15 "HgN/A
1:30 PM41 °FBroken clouds.20 mph66%30.15 "HgN/A
1:00 PM41 °FBroken clouds.18 mph70%30.18 "HgN/A
12:30 PM41 °FBroken clouds.16 mph70%30.18 "HgN/A
12:00 PM41 °FPartly sunny.16 mph70%30.18 "HgN/A
11:30 AM41 °FPartly sunny.17 mph70%30.18 "HgN/A
11:00 AM41 °FPartly sunny.17 mph70%30.18 "HgN/A
10:30 AM41 °FPartly sunny.16 mph70%30.18 "HgN/A
10:00 AM39 °FPartly sunny.3 mph75%30.18 "HgN/A
9:30 AM39 °FPartly sunny.No wind75%30.18 "HgN/A
9:00 AM39 °FPartly sunny.3 mph81%30.15 "HgN/A
8:30 AM39 °FScattered clouds.6 mph81%30.15 "HgN/A
8:00 AM37 °FScattered clouds.5 mph81%30.12 "HgN/A
7:30 AM36 °FPartly sunny.1 mph87%30.12 "HgN/A
7:00 AM34 °FOvercast.2 mph93%30.12 "HgN/A
6:30 AM34 °FDrizzle. More clouds than sun.3 mph93%30.09 "HgN/A
6:00 AM32 °FLight snow. Mostly cloudy.3 mph100%30.09 "HgN/A
5:30 AM32 °FLight snow. Mostly cloudy.No wind100%30.07 "Hg2 mi
5:00 AM34 °FLight snow. Mostly cloudy.1 mph93%30.07 "Hg2 mi
4:30 AM32 °FLight snow. Mostly cloudy.5 mph100%30.04 "Hg4 mi
4:00 AM32 °FLight snow. Mostly cloudy.1 mph100%30.01 "Hg4 mi
3:30 AM32 °FLight snow. Mostly cloudy.1 mph100%30.01 "Hg1 mi
3:00 AM32 °FLight snow. Mostly cloudy.3 mph100%29.98 "Hg2 mi
2:00 AM34 °FRain. Mostly cloudy.7 mph93%29.98 "Hg2 mi
1:30 AM36 °FHeavy rain. Mostly cloudy.7 mph93%29.95 "Hg4 mi
1:00 AM37 °FLight rain. Mostly cloudy.9 mph87%29.98 "HgN/A
12:30 AM37 °FLight rain. Mostly cloudy.12 mph87%29.95 "HgN/A
12:00 AM36 °FLight rain. Mostly cloudy.8 mph93%29.98 "HgN/A
11:30 PM
Thu, Mar 5
37 °FRain. Mostly cloudy.10 mph87%29.98 "HgN/A
11:00 PM39 °FLight rain. Mostly cloudy.6 mph93%29.98 "HgN/A
Weather by CustomWeather, © 2015

See weather overviewHow to use our weather pages